Weather History for PAOR - March, 2013

Change the Weather History Date:

Tuesday, March 26, 2013

  Actual Average Record
Temperature  
Mean Temperature 0 °F -  
Max Temperature 9 °F 30 °F 44 °F (1970)
Min Temperature -8 °F -3 °F -37 °F (1967)
Degree Days  
Heating Degree Days 64    
Moisture  
Dew Point -8 °F    
Average Humidity 65    
Maximum Humidity 83    
Minimum Humidity 44    
Precipitation  
Precipitation 0.00 in - - ()
Snow  
Snow 0.00 in - - ()
Snow Depth 14.00 in    
Sea Level Pressure  
Sea Level Pressure 29.92 in    
Wind  
Wind Speed 11 mph (NW)    
Max Wind Speed 17 mph    
Max Gust Speed 26 mph    
Visibility 8 miles    
Events Snow    
Averages and records for this station are not official NWS values.
T = Trace of Precipitation, MM = Missing Value Source: NWS Daily Summary

Daily Weather History Graph

Daily Weather History Graph

Search for Another Location

Airport or City:

Trip Planner

Search our weather history database for the weather conditions in past years. The results will help you decide how hot, cold, wet, or windy it might be!

Date:

Astronomy

Mar. 26, 2013 Rise Set
Actual Time 7:06 AM AKDT 8:01 PM AKDT
Civil Twilight 6:20 AM AKDT 8:48 PM AKDT
Nautical Twilight 5:22 AM AKDT 9:46 PM AKDT
Astronomical Twilight 4:14 AM AKDT 10:55 PM AKDT
Moon 7:56 PM AKDT (3/26) 6:31 AM AKDT (3/26)
Length of Visible Light 14h 27m
Length of Day
12h 54m
Full, 100% of the Moon is Illuminated
Mar 26
Full
Mar 27
Full
Apr 2
Last Quarter
Apr 10
New
Apr 18
First Quarter

Hourly Weather History & Observations

Time (AKDT) Temp. Windchill Dew Point Humidity Pressure Visibility Wind Dir Wind Speed Gust Speed Precip Events Conditions
12:53 AM 5.0 °F -14.2 °F -4.0 °F 66% 29.63 in 10.0 mi NW 17.3 mph 26.5 mph N/A Snow Light Snow
1:53 AM 3.9 °F -12.2 °F -5.1 °F 66% 29.65 in 3.0 mi NW 11.5 mph 25.3 mph N/A Snow Light Snow
2:50 AM 3.2 °F -13.9 °F -2.2 °F 78% 29.53 in 0.5 mi NW 12.7 mph 21.9 mph N/A Snow Light Snow
2:53 AM 1.9 °F -15.5 °F -2.0 °F 83% 29.70 in 0.5 mi NW 12.7 mph 21.9 mph N/A Snow Light Snow
3:53 AM 1.9 °F -16.9 °F -2.9 °F 80% 29.72 in 0.5 mi NW 15.0 mph 23.0 mph N/A Snow Light Snow
4:45 AM 1.4 °F -17.6 °F -4.0 °F 78% 29.57 in 2.5 mi NNW 15.0 mph 24.2 mph N/A Snow Light Snow
4:53 AM 1.9 °F -16.9 °F -4.0 °F 76% 29.74 in 2.5 mi NW 15.0 mph 25.3 mph N/A Snow Light Snow
5:37 AM 1.4 °F -16.1 °F -5.8 °F 72% 29.60 in 6.0 mi NW 12.7 mph 21.9 mph N/A Snow Light Snow
5:53 AM -0.0 °F -19.4 °F -6.0 °F 76% 29.78 in 8.0 mi NW 15.0 mph 25.3 mph N/A Snow Light Snow
6:53 AM -0.9 °F -18.3 °F -7.1 °F 75% 29.82 in 9.0 mi NW 11.5 mph 23.0 mph N/A   Mostly Cloudy
7:53 AM -0.9 °F -19.9 °F -9.0 °F 69% 29.87 in 10.0 mi NW 13.8 mph 23.0 mph N/A   Mostly Cloudy
8:53 AM -0.9 °F -15.3 °F -9.9 °F 66% 29.91 in 10.0 mi NW 8.1 mph - N/A   Mostly Cloudy
9:53 AM -0.0 °F -16.3 °F -9.0 °F 66% 29.96 in 10.0 mi NNW 10.4 mph 18.4 mph N/A   Mostly Cloudy
10:53 AM 1.9 °F -14.7 °F -9.0 °F 60% 29.99 in 10.0 mi NW 11.5 mph - N/A   Scattered Clouds
11:53 AM 3.9 °F -11.3 °F -9.0 °F 55% 30.01 in 10.0 mi NW 10.4 mph 18.4 mph N/A   Scattered Clouds
12:53 PM 3.9 °F -11.3 °F -9.9 °F 53% 30.04 in 10.0 mi North 10.4 mph 16.1 mph N/A   Scattered Clouds
1:53 PM 5.0 °F -9.1 °F -9.9 °F 50% 30.04 in 10.0 mi NNW 9.2 mph - N/A   Scattered Clouds
2:53 PM 6.1 °F -7.8 °F -9.9 °F 48% 30.06 in 10.0 mi NW 9.2 mph - N/A   Scattered Clouds
3:53 PM 8.1 °F -2.0 °F -9.0 °F 46% 30.07 in 10.0 mi North 5.8 mph - N/A   Scattered Clouds
4:53 PM 9.0 °F 0.6 °F -9.0 °F 44% 30.08 in 10.0 mi North 4.6 mph - N/A   Scattered Clouds
5:53 PM 8.1 °F - -9.0 °F 46% 30.09 in 10.0 mi Calm Calm - N/A   Mostly Cloudy
6:53 PM 6.1 °F -0.9 °F -9.0 °F 50% 30.10 in 10.0 mi North 3.5 mph - N/A   Mostly Cloudy
7:53 PM 3.0 °F - -9.0 °F 57% 30.12 in 10.0 mi Calm Calm - N/A   Scattered Clouds
8:53 PM -2.9 °F -11.2 °F -11.9 °F 65% 30.15 in 10.0 mi NNW 3.5 mph - N/A   Scattered Clouds
9:53 PM -8.0 °F - -14.1 °F 75% 30.17 in 10.0 mi Calm Calm - N/A   Mostly Cloudy
10:53 PM -6.0 °F -18.6 °F -13.0 °F 72% 30.18 in 10.0 mi NW 5.8 mph - N/A   Scattered Clouds
11:53 PM -6.0 °F -18.6 °F -13.0 °F 72% 30.19 in 10.0 mi NW 5.8 mph - N/A   Scattered Clouds